This is the latest recevied weather packets stored in our database for station/object KI6PPU. If no packets are shown the sender has not sent any weather packets the latest 10 day(s).
| Time | Temp. | Humidity | Pressure | Rain* | Wind** | Luminosity | Snow |
|---|---|---|---|---|---|---|---|
| 1777768505 | 21.67° C | 63% | 1013.1 hPa | 0 mm | - | 194 W/m² | - |
| 1777768203 | 21.67° C | 64% | 1013 hPa | 0 mm | - | 204 W/m² | - |
| 1777767900 | 21.67° C | 62% | 1013 hPa | 0 mm | - | 209 W/m² | - |
| 1777767595 | 21.67° C | 61% | 1013.2 hPa | 0 mm | - | 218 W/m² | - |
| 1777767293 | 22.22° C | 63% | 1013.2 hPa | 0 mm | - | 171 W/m² | - |
| 1777766990 | 22.22° C | 62% | 1013.1 hPa | 0 mm | - | 202 W/m² | - |
| 1777766687 | 22.78° C | 63% | 1013.4 hPa | 0 mm | - | 212 W/m² | - |
| 1777766384 | 22.78° C | 60% | 1013.2 hPa | 0 mm | - | 226 W/m² | - |
| 1777766081 | 22.78° C | 60% | 1013.3 hPa | 0 mm | - | 237 W/m² | - |
| 1777765779 | 22.78° C | 58% | 1013.3 hPa | 0 mm | - | 259 W/m² | - |
| 1777765475 | 23.33° C | 57% | 1013.3 hPa | 0 mm | - | 333 W/m² | - |
| 1777765172 | 23.89° C | 57% | 1013.2 hPa | 0 mm | - | 339 W/m² | - |
| 1777764867 | 23.33° C | 63% | 1013.4 hPa | 0 mm | - | 368 W/m² | - |
| 1777764565 | 23.33° C | 58% | 1013.2 hPa | 0 mm | - | 445 W/m² | - |
| 1777764261 | 23.33° C | 58% | 1013.2 hPa | 0 mm | - | 343 W/m² | - |
| 1777763958 | 22.78° C | 58% | 1013.4 hPa | 0 mm | - | 314 W/m² | - |
| 1777763655 | 23.33° C | 58% | 1013.4 hPa | 0 mm | - | 307 W/m² | - |
| 1777763354 | 23.33° C | 60% | 1013.4 hPa | 0 mm | - | 314 W/m² | - |
| 1777763051 | 23.89° C | 59% | 1013.5 hPa | 0 mm | - | 341 W/m² | - |
| 1777762749 | 23.89° C | 58% | 1013.6 hPa | 0 mm | - | 307 W/m² | - |
| 1777762444 | 23.89° C | 55% | 1013.7 hPa | 0 mm | - | 340 W/m² | - |
| 1777762142 | 23.89° C | 61% | 1013.7 hPa | 0 mm | - | 369 W/m² | - |
| 1777761837 | 23.89° C | 59% | 1013.8 hPa | 0 mm | - | 428 W/m² | - |
| 1777761535 | 23.89° C | 60% | 1013.9 hPa | 0 mm | - | 502 W/m² | - |
| 1777761233 | 23.89° C | 55% | 1014 hPa | 0 mm | - | 387 W/m² | - |
* Rain latest hour (hover to see other rain measurements)
** Current wind speed in m/s (hover to see current wind gust speed)